sat.trackr.live / text

‹ back to catalog

STARLINK-1598

NORAD 46160 · 2020-057AV

PAYLOAD ACTIVE UNKNOWN

§ Identity

Operator
Country
US
Launch date
2020-08-18
Launch site
AFETR
Launch vehicle
Mass (kg)
RCS (m²)

Purposes: comms

External: N2YO · Heavens-Above · Gunter

§ Orbital elements

Epoch: 2026-05-25T01:08:53.344032Z

Period
91.76 min
Inclination
53.0454°
Eccentricity
0.0002917
Mean motion
15.69309083 rev/d
Perigee alt
358.9 km
Apogee alt
362.8 km
Semi-major
6,739.0 km
B*
6.9898e-4
RAAN
271.1701°
Arg perigee
156.1690°
Mean anomaly
203.9461°
Rev number
31,970

§ Raw data

STARLINK-15981 46160U 20057AV  26145.04783963  .00083565  00000+0  69898-3 0  99982 46160  53.0454 271.1701 0002917 156.1690 203.9461 15.69309083319705

JSON: /api/v1/satellites/46160 · /tle

For live sub-satellite position, see the globe view (requires WebGL).

§ Visibility from observer

Set your observer location to see the next 7 days of passes ≥ 10°. The values pass through the URL so the page stays shareable.

No JS? Fill the form by hand. The geolocation button needs JavaScript.